Location: Beaurecueil
(43.5122°N, 5.5450°E)
Time: 20:13:14
(UTC+00:00)

USA 238 DEB - Pass Details

Date: 18 September 2020
Orbit: 1004 x 1208 km, 63.4° (Epoch: 28 October)

Event Time Altitude Azimuth Distance (km) Brightness Sun altitude
Rises 19:32:52 0° 324° (NW) 3,945 7.7 -20.4°
Reaches altitude 10° 19:35:31 10° 327° (NNW) 3,013 6.9 -20.8°
Maximum altitude 19:42:44 69° 50° (NE) 1,238 3.9 -22.0°
Enters shadow 19:45:40 40° 121° (ESE) 1,681 4.2 -22.5°
